Location: Aranbee
(34.0885°N, 118.2342°W)
Time: 12:08:04
(UTC+00:00)

S-56A Canister/Altair - Pass Details

Date: 03 August 2021
Orbit: 632 x 2500 km, 38.9° (Epoch: 18 September)

Event Time Altitude Azimuth Distance (km) Brightness Sun altitude
Rises 04:37:14 0° 293° (WNW) 6,180 13.6 -19.6°
Reaches altitude 10° 04:41:34 10° 289° (WNW) 5,124 12.7 -20.3°
Maximum altitude 04:55:10 48° 221° (SW) 2,623 10.1 -22.4°
Enters shadow 05:01:27 27° 165° (SSE) 3,074 10.1 -23.3°
